Watford City, ND

5:22 PM CST on January 20, 2018 (GMT -0600)
Watford City

Weather History for KS25 - November, 2013

Change the Weather History Date:

Sunday, November 17, 2013

  Actual Average (KISN) Record (KISN)
Temperature  
Mean Temperature 24 °F -  
Max Temperature 32 °F 36 °F 65 °F (1908)
Min Temperature 15 °F 17 °F -10 °F (1959)
Degree Days  
Heating Degree Days 40    
Moisture  
Dew Point 26 °F    
Average Humidity 94    
Maximum Humidity 100    
Minimum Humidity 86    
Precipitation  
Precipitation 0.26 in - - ()
Sea Level Pressure  
Sea Level Pressure 29.68 in    
Wind  
Wind Speed 6 mph (NW)    
Max Wind Speed 13 mph    
Max Gust Speed 16 mph    
Visibility 9 miles    
Events Rain , Snow    
Averages and records for this station are not official NWS values.
T = Trace of Precipitation, MM = Missing Value Source: NWS Daily Summary

Daily Weather History Graph

Daily Weather History Graph

Search for Another Location

Airport or City:

Trip Planner

Search our weather history database for the weather conditions in past years. The results will help you decide how hot, cold, wet, or windy it might be!

Date:

Astronomy

Nov. 17, 2013 Rise Set
Actual Time 8:02 AM CST 5:13 PM CST
Civil Twilight 7:28 AM CST 5:47 PM CST
Nautical Twilight 6:50 AM CST 6:25 PM CST
Astronomical Twilight 6:13 AM CST 7:01 PM CST
Moon 5:32 PM CST (11/17) 7:57 AM CST (11/17)
Length of Visible Light 10h 19m
Length of Day
9h 11m
Full, 100% of the Moon is Illuminated
Nov 17
Full
Nov 25
Last Quarter
Dec 2
New
Dec 9
First Quarter
Dec 17
Full

Hourly Weather History & Observations

Time (CST) Temp. Windchill Dew Point Humidity Pressure Visibility Wind Dir Wind Speed Gust Speed Precip Events Conditions
12:15 AM 32.0 °F 27.5 °F 32.0 °F 100% 29.37 in 1.8 mi SW 4.6 mph - N/A   Overcast
12:35 AM 32.0 °F 27.5 °F 32.0 °F 100% 29.38 in 2.5 mi SW 4.6 mph - N/A   Overcast
12:55 AM 32.0 °F 28.7 °F 32.0 °F 100% 29.38 in 3.0 mi WSW 3.5 mph - N/A   Overcast
1:15 AM 32.0 °F 28.7 °F 32.0 °F 100% 29.38 in 5.0 mi WSW 3.5 mph - N/A Rain Light Rain
1:35 AM 32.0 °F 27.5 °F 32.0 °F 100% 29.38 in 5.0 mi WSW 4.6 mph - N/A   Overcast
1:55 AM 32.0 °F 28.7 °F 32.0 °F 100% 29.39 in 5.0 mi WSW 3.5 mph - N/A Rain Light Rain
2:15 AM 32.0 °F 25.6 °F 32.0 °F 100% 29.40 in 5.0 mi North 6.9 mph - N/A Snow Light Snow
2:35 AM 32.0 °F 27.5 °F 32.0 °F 100% 29.41 in 4.0 mi NNW 4.6 mph - N/A Snow Light Snow
2:55 AM 32.0 °F 24.8 °F 32.0 °F 100% 29.41 in 5.0 mi NNE 8.1 mph - N/A   Overcast
3:15 AM 32.0 °F 25.6 °F 32.0 °F 100% 29.42 in 7.0 mi NNE 6.9 mph - N/A   Overcast
3:35 AM 32.0 °F 26.4 °F 32.0 °F 100% 29.43 in 10.0 mi NNE 5.8 mph - N/A   Overcast
3:55 AM 32.0 °F 25.6 °F 32.0 °F 100% 29.44 in 10.0 mi NNE 6.9 mph - N/A   Overcast
4:15 AM 32.0 °F 26.4 °F 32.0 °F 100% 29.44 in 10.0 mi NNE 5.8 mph - N/A   Overcast
4:35 AM 32.0 °F 24.8 °F 32.0 °F 100% 29.45 in 10.0 mi NNE 8.1 mph - N/A   Overcast
4:55 AM 32.0 °F 24.2 °F 32.0 °F 100% 29.46 in 10.0 mi North 9.2 mph - N/A   Overcast
5:15 AM 30.2 °F 22.6 °F 30.2 °F 100% 29.47 in 10.0 mi NNE 8.1 mph - N/A   Overcast
5:35 AM 30.2 °F 23.4 °F 30.2 °F 100% 29.48 in 10.0 mi North 6.9 mph - N/A   Overcast
5:55 AM 28.4 °F 21.2 °F 28.4 °F 100% 29.49 in 10.0 mi North 6.9 mph - N/A Rain Light Freezing Rain
6:15 AM 28.4 °F 20.4 °F 28.4 °F 100% 29.50 in 10.0 mi NNE 8.1 mph - N/A Rain Light Freezing Rain
6:35 AM 28.4 °F 20.4 °F 28.4 °F 100% 29.52 in 10.0 mi North 8.1 mph - N/A   Overcast
6:55 AM 28.4 °F 21.2 °F 28.4 °F 100% 29.53 in 9.0 mi NNE 6.9 mph - N/A   Overcast
7:15 AM 28.4 °F 21.2 °F 28.4 °F 100% 29.54 in 10.0 mi North 6.9 mph - N/A   Overcast
7:35 AM 28.4 °F 22.2 °F 26.6 °F 93% 29.55 in 10.0 mi NNE 5.8 mph - N/A   Overcast
7:55 AM 28.4 °F 21.2 °F 26.6 °F 93% 29.57 in 4.0 mi NNE 6.9 mph - 0.02 in Snow Light Snow
8:35 AM 26.6 °F 19.1 °F 26.6 °F 100% 29.60 in 1.8 mi North 6.9 mph - 0.10 in Snow Light Snow
8:55 AM 26.6 °F 18.2 °F 26.6 °F 100% 29.61 in 1.2 mi North 8.1 mph - 0.22 in Snow Light Snow
9:15 AM 26.6 °F 18.2 °F 26.6 °F 100% 29.62 in 2.5 mi North 8.1 mph - 0.01 in Snow Light Snow
9:35 AM 26.6 °F 17.5 °F 26.6 °F 100% 29.64 in 10.0 mi North 9.2 mph - 0.02 in Snow Light Snow
9:55 AM 26.6 °F 16.8 °F 24.8 °F 93% 29.65 in 10.0 mi North 10.4 mph - 0.02 in   Overcast
10:15 AM 26.6 °F 17.5 °F 24.8 °F 93% 29.66 in 10.0 mi North 9.2 mph - N/A   Overcast
10:35 AM 26.6 °F 18.2 °F 24.8 °F 93% 29.68 in 9.0 mi North 8.1 mph - N/A   Overcast
10:55 AM 24.8 °F 16.1 °F 24.8 °F 100% 29.69 in 10.0 mi North 8.1 mph - N/A   Overcast
11:15 AM 24.8 °F 17.9 °F 24.8 °F 100% 29.70 in 10.0 mi North 5.8 mph - N/A   Overcast
11:35 AM 26.6 °F 20.0 °F 24.8 °F 93% 29.72 in 10.0 mi North 5.8 mph - N/A   Overcast
11:55 AM 26.6 °F 19.1 °F 24.8 °F 93% 29.72 in 10.0 mi NNW 6.9 mph - N/A   Overcast
12:15 PM 26.6 °F 19.1 °F 24.8 °F 93% 29.73 in 10.0 mi NNW 6.9 mph - N/A   Overcast
12:35 PM 26.6 °F 19.1 °F 24.8 °F 93% 29.74 in 10.0 mi WNW 6.9 mph - N/A   Overcast
12:55 PM 26.6 °F 21.2 °F 24.8 °F 93% 29.74 in 10.0 mi WNW 4.6 mph - N/A   Overcast
1:15 PM 26.6 °F 18.2 °F 24.8 °F 93% 29.74 in 10.0 mi WNW 8.1 mph - N/A   Overcast
1:35 PM 26.6 °F 19.1 °F 24.8 °F 93% 29.75 in 10.0 mi WNW 6.9 mph - N/A   Overcast
1:55 PM 26.6 °F 19.1 °F 24.8 °F 93% 29.76 in 10.0 mi NW 6.9 mph - N/A   Overcast
2:15 PM 26.6 °F 17.5 °F 24.8 °F 93% 29.78 in 10.0 mi WNW 9.2 mph - N/A   Overcast
2:35 PM 26.6 °F 17.5 °F 23.0 °F 86% 29.78 in 10.0 mi WNW 9.2 mph - N/A   Overcast
2:55 PM 26.6 °F 15.7 °F 24.8 °F 93% 29.79 in 10.0 mi West 12.7 mph - N/A   Overcast
3:15 PM 26.6 °F 17.5 °F 23.0 °F 86% 29.79 in 10.0 mi WNW 9.2 mph - N/A   Overcast
3:35 PM 26.6 °F 16.8 °F 24.8 °F 93% 29.80 in 10.0 mi WNW 10.4 mph 16.1 mph N/A   Overcast
3:55 PM 26.6 °F 16.2 °F 23.0 °F 86% 29.81 in 10.0 mi WNW 11.5 mph - N/A   Overcast
4:15 PM 26.6 °F 17.5 °F 23.0 °F 86% 29.82 in 10.0 mi WNW 9.2 mph - N/A   Overcast
4:35 PM 26.6 °F 17.5 °F 23.0 °F 86% 29.83 in 10.0 mi WNW 9.2 mph - N/A   Overcast
4:55 PM 26.6 °F 19.1 °F 23.0 °F 86% 29.84 in 10.0 mi WNW 6.9 mph - N/A   Overcast
5:15 PM 26.6 °F 18.2 °F 23.0 °F 86% 29.84 in 10.0 mi WNW 8.1 mph - N/A   Overcast
5:35 PM 26.6 °F 21.2 °F 23.0 °F 86% 29.85 in 10.0 mi WNW 4.6 mph - N/A   Overcast
5:55 PM 26.6 °F 21.2 °F 23.0 °F 86% 29.86 in 10.0 mi West 4.6 mph - N/A   Overcast
6:15 PM 26.6 °F 22.6 °F 24.8 °F 93% 29.86 in 10.0 mi WSW 3.5 mph - N/A   Overcast
6:35 PM 26.6 °F 21.2 °F 24.8 °F 93% 29.86 in 10.0 mi West 4.6 mph - N/A   Overcast
6:55 PM 26.6 °F 21.2 °F 24.8 °F 93% 29.87 in 10.0 mi West 4.6 mph - N/A   Overcast
7:15 PM 26.6 °F 21.2 °F 23.0 °F 86% 29.88 in 10.0 mi WSW 4.6 mph - N/A   Mostly Cloudy
7:35 PM 26.6 °F 20.0 °F 24.8 °F 93% 29.88 in 10.0 mi West 5.8 mph - N/A   Overcast
7:55 PM 26.6 °F 17.5 °F 23.0 °F 86% 29.88 in 10.0 mi WNW 9.2 mph - N/A   Mostly Cloudy
8:15 PM 26.6 °F 18.2 °F 23.0 °F 86% 29.89 in 10.0 mi WNW 8.1 mph - N/A   Overcast
8:35 PM 26.6 °F 18.2 °F 23.0 °F 86% 29.90 in 10.0 mi WNW 8.1 mph - N/A   Overcast
8:55 PM 26.6 °F 21.2 °F 23.0 °F 86% 29.90 in 10.0 mi WNW 4.6 mph - N/A   Overcast
9:15 PM 26.6 °F 21.2 °F 23.0 °F 86% 29.91 in 10.0 mi West 4.6 mph - N/A   Overcast
9:35 PM 24.8 °F 16.1 °F 21.2 °F 86% 29.92 in 10.0 mi WNW 8.1 mph - N/A   Mostly Cloudy
9:55 PM 23.0 °F 15.8 °F 19.4 °F 86% 29.92 in 10.0 mi West 5.8 mph - N/A   Partly Cloudy
10:15 PM 21.2 °F 13.6 °F 19.4 °F 93% 29.93 in 10.0 mi WSW 5.8 mph - N/A   Clear
10:35 PM 17.6 °F 8.2 °F 15.8 °F 93% 29.93 in 10.0 mi WSW 6.9 mph - N/A   Clear
10:55 PM 17.6 °F 9.3 °F 15.8 °F 93% 29.93 in 10.0 mi NNW 5.8 mph - N/A   Clear
11:15 PM 19.4 °F 9.5 °F 17.6 °F 93% 29.94 in 10.0 mi West 8.1 mph - N/A   Clear
11:35 PM 17.6 °F 12.3 °F 14.0 °F 86% 29.93 in 10.0 mi SSW 3.5 mph - N/A   Clear
11:55 PM 15.8 °F - 14.0 °F 93% 29.94 in 10.0 mi Calm Calm - N/A   Clear